{"data":{"norad_id":57369,"intl_designator":"2023-099AT","name":"STARLINK-6168","alt_names":[],"object_type":"PAYLOAD","status":"ACTIVE","operator":null,"country":"US","launch_date":"2023-07-16","launch_site_code":"AFETR","launch_vehicle":null,"mission":null,"orbit_class":"UNKNOWN","rcs_meters":null,"size_class":null,"mass_kg":null,"dimensions":null,"purposes":["comms"],"wikipedia_slug":null,"has_3d_model":false,"image_url":null,"decayed_at":null,"tle_current":{"epoch":"2026-05-25T01:53:54.350592Z","epoch_age_seconds":72221,"freshness":"FRESH","line1":"1 57369U 23099AT  26145.07910128  .00001395  00000+0  60275-4 0  9990","line2":"2 57369  43.0020 170.1307 0001369 254.0355 106.0346 15.27542623157889","mean_motion":15.27542623,"eccentricity":0.0001369,"inclination_deg":43.002,"raan_deg":170.1307,"arg_perigee_deg":254.0355,"mean_anomaly_deg":106.0346,"bstar":6.0275e-5,"rev_number":15788,"period_min":94.269055299546,"perigee_km":482.22170680734,"apogee_km":484.1003302048,"semimajor_km":6861.2980185061,"source":"CELESTRAK","updated_at":"2026-05-25T13:38:18.294522Z"}}}